Regional Weather Roundup
Issued by NWS Sioux Falls, SD

Home | Current Version | Previous Version | Graphics & Text | Print | Product List | Glossary Off
Versions: 1 2 3 4 5 6 7 8 9 10 11 12 13 14 15 16 17 18 19 20 21 22 23 24 25 26 27 28 29 30 31 32 33 34 35 36 37 38 39 40 41 42 43 44 45 46 47 48 49 50

000
ASUS43 KFSD 140210
RWRFSD

WEATHER ROUNDUP FOR SE SOUTH DAKOTA/SW MINNESOTA/NW IOWA
NATIONAL WEATHER SERVICE SIOUX FALLS SD
800 PM CST WED DEC 13 2017

NOTE: "FAIR" INDICATES FEW OR NO CLOUDS BELOW 12,000 FEET WITH NO
SIGNIFICANT WEATHER AND OR OBSTRUCTIONS TO VISIBILITY.


SDZ038>040-050-052>070-140300-
SOUTHEAST SOUTH DAKOTA

CITY           SKY/WX    TMP DP  RH WIND       PRES   REMARKS
BROOKINGS      CLOUDY    28  25  86 N16       29.92R WCI  17
CHAMBERLAIN    CLOUDY    36  28  71 NW8       30.00R
HURON          CLOUDY    35  24  64 N17       29.96R WCI  25
MADISON        CLOUDY    32  32 100 N15G22    29.92R WCI  22
MITCHELL       CLOUDY    37  25  61 N20G28    29.98R
SIOUX FALLS    FLURRIES  34  30  85 N17       29.93R WCI  23
WINNER         FAIR      33  25  72 N6        30.02R WCI  28
YANKTON        CLOUDY    37  25  61 N22G30    29.96R
$$

MNZ071-072-080-081-089-090-097-098-140300-
SOUTHWEST MINNESOTA

CITY           SKY/WX    TMP DP  RH WIND       PRES   REMARKS
FAIRMONT       CLOUDY    26  20  77 N16       29.89R WCI  14
JACKSON        CLOUDY    28  23  80 MISG      29.88R
LUVERNE        CLOUDY    32  27  80 NW12G18   29.90S WCI  23
MARSHALL       CLOUDY    26  22  84 N20       29.93R WCI  12
MONTEVIDEO     CLOUDY    25  19  80 N15       29.93R WCI  12
PIPESTONE      CLOUDY    30  25  80 NE16G24   29.89R WCI  19
REDWOOD FALLS  CLOUDY    26  17  68 N12G18    29.92R WCI  16
WINDOM           N/A     27  14  59 NW21G33   29.89R WCI  13
WORTHINGTON    CLOUDY    28  24  85 N17G29    29.90R WCI  16
$$

IAZ001>003-012>014-020>022-031-032-NEZ013-014-SDZ071-140300-
NORTHWEST IOWA

CITY           SKY/WX    TMP DP  RH WIND       PRES   REMARKS
CHEROKEE       CLOUDY    33  26  77 N12       29.90F WCI  24
DENISON        CLOUDY    36  27  69 N17G24    29.92R
ESTHERVILLE    CLOUDY    27  22  81 N25G38    29.88R WCI  12
LE MARS        CLOUDY    36  30  80 N16       29.93R
ORANGE CITY    CLOUDY    34  32  93 N12       29.91R WCI  25
SHELDON        CLOUDY    32  27  80 NW12      29.89R WCI  23
SIOUX CITY     CLOUDY    38  27  64 N21       29.92R
SPENCER        CLOUDY    32  25  75 N17       29.88R WCI  21
STORM LAKE     CLOUDY    32  23  69 N22G33    29.88S WCI  19
$$

ABBREVIATIONS USED IN REMARKS
   TC - TEMPERATURE IN CELSIUS
  WCI - WIND CHILL INDEX
   HX - HEAT INDEX
  VSB - VISIBILITY





USA.gov is the U.S. government's official web portal to all federal, state and local government web resources and services.